Regional Weather Roundup
Issued by NWS Sterling, VA

Home | Current Version | Previous Version | Graphics & Text | Print | Product List | Glossary On
Versions: 1 2 3 4 5 6 7 8 9 10 11 12 13 14 15 16 17 18 19 20 21 22 23 24 25 26 27
000
ASUS41 KLWX 271411
RWRLWX

REGIONAL WEATHER ROUNDUP
NATIONAL WEATHER SERVICE BALTIMORE MD/WASHINGTON DC
1000 AM EDT MON MAR 27 2017

Note: "FAIR" indicates few or no clouds below 12,000 feet
with no significant weather and/or obstructions to visibility.
 TC=TEMPERATURE CELSIUS

 * =Non NWS site. Station does not report precipitation (e.g. rain,
    snow, etc.), thunder, or fog.

DCZ001-MDZ009-015-VAZ040>042-051-053>054-271500-
WASHINGTON METRO

CITY           SKY/WX    TMP DP  RH WIND       PRES   REMARKS
WASHINGTON NAT FOG       49  49 100 S7        30.09F VSB 1
DULLES         CLOUDY    50  47  89 S8        30.07F FOG
ANDREWS AFB    CLOUDY    52  52 100 S5        30.07S
FT BELVOIR     CLOUDY    50  50 100 S3        30.09S
QUANTICO       CLOUDY    49  49 100 VRB3      30.10F FOG
COLLEGE PARK*  CLOUDY    46  46 100 S5        30.08F
LEESBURG*      CLOUDY    50  50 100 CALM      30.08S FOG
MANASSAS*      CLOUDY    51  50  96 S3        30.08F

$$

MDZ006>007-011-014-271500-
BALTIMORE METRO

CITY           SKY/WX    TMP DP  RH WIND       PRES   REMARKS
BWI AIRPORT    FOG       47  47 100 CALM      30.08F VSB 3/4
MD SCIENCE CTR   N/A     47  45  93 MISG      30.09F
MARTIN STATE   FOG       46  46 100 CALM      30.11S VSB 1
ANNAPOLIS      LGT RAIN  47  47 100 E5        30.09S FOG
FORT MEADE*    CLOUDY    46  46 100 CALM      30.11S

$$

MDZ012-015-019>023-271500-
MARYLAND EASTERN SHORE

CITY           SKY/WX    TMP DP  RH WIND       PRES   REMARKS
OCEAN CITY     PTSUNNY   60  53  77 SW14G20   30.12F
SALISBURY      CLOUDY    64  58  80 S13       30.10F
BAY BRIDGE AP* CLOUDY    48  48 100 W3        30.09S FOG
CAMBRIDGE*     CLOUDY    61  55  82 S9        30.09S
EASTON*        PTSUNNY   54  52  94 SW5       30.12F

$$

MDZ017>025-271500-
SOUTHERN MARYLAND

CITY           SKY/WX    TMP DP  RH WIND       PRES   REMARKS
PATUXENT RIVER CLOUDY    61  58  90 S13       30.07F
ST INIGOES     PTSUNNY   62  56  80 S10       30.08F
LEONARDTOWN*   CLOUDY    59  54  82 SW9       30.09S

$$

MDZ003>005-271500-
NORTH CENTRAL MARYLAND

CITY           SKY/WX    TMP DP  RH WIND       PRES   REMARKS
FREDERICK*     FOG       48  48 100 CALM      30.11S VSB 1
HAGERSTOWN APT CLOUDY    48  47  96 N3        30.06S FOG
WESTMINSTER*   FOG       48  48 100 CALM      30.06F VSB 1

$$

MDZ501>502-271500-
WESTERN MARYLAND

CITY           SKY/WX    TMP DP  RH WIND       PRES   REMARKS
OAKLAND*       CLOUDY    50  50 100 W9        30.03R
CUMBERLAND*    CLOUDY    50  50 100 CALM      30.09S

$$

VAZ025>031-271500-
SHENANDOAH VALLEY

CITY           SKY/WX    TMP DP  RH WIND       PRES   REMARKS
WINCHESTER*    CLOUDY    52  50  93 CALM      30.04S
FRONT ROYAL*   CLOUDY    59  54  82 CALM      30.03S
LURAY*         MOSUNNY   59  57  94 SW7       30.04F
NEW MARKET*    PTSUNNY   58  54  86 W6        30.04F
STAUNTON*      MOSUNNY   60  56  87 SW6       30.08S
WAYNESBORO*    SUNNY     61  58  89 SW6       30.07S

$$

WVZ021-048>050-054>055-271500-
EASTERN WEST VIRGINIA PANHANDLE

CITY           SKY/WX    TMP DP  RH WIND       PRES   REMARKS
MARTINSBURG    CLOUDY    48  47  96 NE5       30.05R FOG
PETERSBURG*    CLOUDY    52  49  90 CALM      30.05S

$$

VAZ036>039-050-271500-
CENTRAL FOOTHILLS

CITY           SKY/WX    TMP DP  RH WIND       PRES   REMARKS
CHARLOTTESVILL CLOUDY    55  53  93 S8        30.07F FOG
CULPEPER*      LGT RAIN  51  51 100 S3        30.08F
ORANGE*        CLOUDY    52  52 100 S5        30.09F
GORDONSVILLE*  CLOUDY    53  53 100 S8        30.07F
WARRENTON*     CLOUDY    54  50  87 S5        30.07F

$$

VAZ055>057-271500-
NORTH AND CENTRAL PIEDMONT

CITY           SKY/WX    TMP DP  RH WIND       PRES   REMARKS
FREDERICKSBRG* CLOUDY    53  53 100 CALM      30.09S FOG
STAFFORD*      CLOUDY    51  51 100 CALM      30.13S FOG

$$

NCZ024-NYZ072-PAZ021-071-VAZ022-071-271500-
OTHER REGIONAL OBSERVATIONS

CITY           SKY/WX    TMP DP  RH WIND       PRES   REMARKS
NEW YORK CITY  CLOUDY    40  40 100 NE3       30.12F FOG
PHILADELPHIA   LGT RAIN  45  44  97 CALM      30.10R FOG
PITTSBURGH     PTSUNNY   56  51  84 SW12      29.99R
ROANOKE        CLOUDY    59  57  93 VRB3      30.11S
RICHMOND       CLOUDY    63  57  81 S14       30.10F
RALEIGH        CLOUDY    62  59  90 S8        30.15S

$$

ANZ530>537-271500-
MARINE OBSERVATIONS

STATION/POSITION TIME  TEMP    WIND        PRES
                       AIR SEA DIR/SP/G
                 (UTC) (F)     (DEG/KT/KT) (MB)
THOMAS PT LIGHT  1400   46 45     CALM       N/A
BALT KEY BRIDGE  1348   45      CALM  /  1 1019.1F
COVE POINT       1348   48     170/  3/  5 1019.3F
LEWISETTA        1348   63 51  220/ 12/ 15 1018.5F
SOLOMONS ISLAND  1348   52 47   CALM  /  2   N/A
PINEY POINT      1348          220/  6/  7   N/A

$$





USA.gov is the U.S. government's official web portal to all federal, state and local government web resources and services.